SCP
0 0 0 0 0 0 0 0 0 0 0 0 0 0 0 0 0 0 0 0 0 0 0 0 0 0 0 0 0 0 0 0 0 0 0 0 0 0 0 0 0 0 0
0 0 0 0 0 0 0 0 0 0 0 0 0 0 0 0 0 0 0 0 0 0 0 0 0 0 0 0 0 0 0 0 0 0 0 0 0 0 0 0 0 0 0
0 0 0 0 0 0 0 0 0 0 0 0 0 0 0 0 0 0 0 0 0 0 0 0 0 0 0 0 0 0 0 0 0 0 0 0 0 0 0 0 0 0 0
0 0 0 0 0 0 0 0 0 0 0 0 0 0 0 0 0 0 0 0 0 0 0 0 0 0 0 0 0 0 0 0 0 0 0 0 0 0 0 0 0 0 0
0 0 0 0 0 0 0 0 0 0 0 0 0 0 0 0 0 0 0 0 0 0 0 0 0 0 0 0 0 0 0 0 0 0 0 0 0 0 0 0 0 0 0
0 0 0 0 0 0 0 0 0 0 0 0 0 0 0 0 0 0 0 0 0 0 0 0 0 0 0 0 0 0 0 0 0 0 0 0 0 0 0 0 0 0 0
0 0 0 0 0 0 0 0 0 0 0 0 0 0 0 0 0 0 0 0 0 0 0 0 0 0 0 0 0 0 0 0 0 0 0 0 0 0 0 0 0 0 0
0 0 0 0 0 0 0 0 0 0 0 0 0 0 0 0 0 0 0 0 0 0 0 0 0 0 0 0 0 0 0 0 0 0 0 0 0 0 0 0 0 0 0
0 0 0 0 0 0 0 0 0 0 0 0 0 0 0 0 0 0 0 0 0 0 0 0 0 0 0 0 0 0 0 0 0 0 0 0 0 0 0 0 0 0 0
0 0 0 0 0 0 0 0 0 0 0 0 0 0 0 0 0 0 0 0 0 0 0 0 0 0 0 0 0 0 0 0 0 0 0 0 0 0 0 0 0 0 0
0 0 0 0 0 0 0 0 0 0 0 0 0 0 0 0 0 0 0 0 0 0 0 0 0 0 0 0 0 0 0 0 0 0 0 0 0 0 0 0 0 0 0
0 0 0 0 0 0 0 0 0 0 0 0 0 0 0 0 0 0 0 0 0 0 0 0 0 0 0 0 0 0 0 0 0 0 0 0 0 0 0 0 0 0 0
0 0 0 0 0 0 0 0 0 0 0 0 0 0 0 0 0 0 0 0 0 0 0 0 0 0 0 0 0 0 0 0 0 0 0 0 0 0 0 0 0 0 0
0 0 0 0 0 0 0 0 0 0 0 0 0 0 0 0 0 0 0 0 0 0 0 0 0 0 0 0 0 0 0 0 0 0 0 0 0 0 0 0 0 0 0
0 0 0 0 0 0 0 0 0 0 0 0 0 0 0 0 0 0 0 0 0 0 0 0 0 0 0 0 0 0 0 0 0 0 0 0 0 0 0 0 0 0 0
0 0 0 0 0 0 0 0 0 0 0 0 0 0 0 0 0 0 0 0 0 0 0 0 0 0 0 0 0 0 0 0 0 0 0 0 0 0 0 0 0 0 0
0 0 0 0 0 0 0 0 0 0 0 0 0 0 0 0 0 0 0 0 0 0 0 0 0 0 0 0 0 0 0 0 0 0 0 0 0 0 0 0 0 0 0
0 0 0 0 0 0 0 0 0 0 0 0 0 0 0 0 0 0 0 0 0 0 0 0 0 0 0 0 0 0 0 0 0 0 0 0 0 0 0 0 0 0 0
0 0 0 0 0 0 0 0 0 0 0 0 0 0 0 0 0 0 0 0 0 0 0 0 0 0 0 0 0 0 0 0 0 0 0 0 0 0 0 0 0 0 0
0 0 0 0 0 0 0 0 0 0 0 0 0 0 0 0 0 0 0 0 0 0 0 0 0 0 0 0 0 0 0 0 0 0 0 0 0 0 0 0 0 0 0
0 0 0 0 0 0 0 0 0 0 0 0 0 0 0 0 0 0 0 0 0 0 0 0 0 0 0 0 0 0 0 0 0 0 0 0 0 0 0 0 0 0 0
0 0 0 0 0 0 0 0 0 0 0 0 0 0 0 0 0 0 0 0 0 0 0 0 0 0 0 0 0 0 0 0 0 0 0 0 0 0 0 0 0 0 0
0 0 0 0 0 0 0 0 0 0 0 0 0 0 0 0 0 0 0 0 0 0 0 0 0 0 0 0 0 0 0 0 0 0 0 0 0 0 0 0 0 0 0
0 0 0 0 0 0 0 0 0 0 0 0 0 0 0 0 0 0 0 0 0 0 0 0 0 0 0 0 0 0 0 0 0 0 0 0 0 0 0 0 0 0 0
0 0 0 0 0 0 0 0 0 0 0 0 0 0 0 0 0 0 0 0 0 0 0 0 0 0 0 0 0 0 0 0 0 0 0 0 0 0 0 0 0 0 0
0 0 0 0 0 0 0 0 0 0 0 0 0 0 0 0 0 0 0 0 0 0 0 0 0 0 0 0 0 0 0 0 0 0 0 0 0 0 0 0 0 0 0
Wind_Speed
4 3 3 2 3 2 2 3 4 4 5 6 5 6 5 5 5 4 2 5 4 5 6 6 7 8 7 7 8 8 8 8 8 8 8 9 9 10 10 10 10 10 10
4 4 3 2 3 2 2 3 3 3 3 4 5 5 5 5 6 5 4 5 6 5 5 6 7 8 8 8 8 8 8 8 8 8 8 9 10 10 10 10 10 10 10
5 4 4 3 3 3 3 3 4 3 3 4 5 5 4 5 5 6 5 4 5 7 6 6 7 8 8 8 8 9 8 8 8 9 9 10 10 10 10 10 10 10 10
6 4 4 3 3 3 2 2 2 2 3 3 3 4 4 3 5 6 5 5 4 4 7 7 6 7 8 8 8 9 9 9 9 9 9 10 10 10 10 10 11 10 10
6 4 4 3 3 2 2 3 1 2 2 2 3 3 3 3 4 5 6 5 4 4 4 7 7 7 8 8 8 8 9 9 9 10 11 11 11 10 11 10 11 10 10
6 5 3 4 4 3 2 2 2 2 2 2 3 2 2 3 3 4 4 4 4 4 4 5 6 7 8 7 8 8 9 9 10 11 12 12 11 11 11 11 11 11 11
6 5 4 4 4 3 3 3 2 2 1 1 2 2 3 3 3 3 4 4 4 4 4 4 4 4 6 10 9 8 9 10 10 11 12 12 12 12 12 12 12 12 12
6 5 5 4 3 3 3 3 2 2 1 0 1 2 2 3 3 3 3 3 4 4 4 5 5 5 4 5 8 11 9 9 10 11 12 12 12 12 12 12 13 13 13
5 5 6 5 4 3 3 3 3 3 2 1 1 1 1 1 1 2 2 3 2 2 3 3 4 4 5 5 5 10 11 10 11 12 12 13 13 13 13 13 13 13 13
4 4 5 5 4 3 3 3 3 2 2 1 0 1 1 1 1 1 2 2 2 2 2 3 4 3 4 4 3 3 9 9 10 12 13 13 13 14 14 14 13 13 13
3 4 5 4 4 3 3 3 3 3 2 2 1 1 1 1 2 2 1 1 2 2 2 3 3 3 3 4 3 3 6 7 9 10 12 13 14 15 15 15 15 14 14
2 3 4 4 4 3 3 3 3 2 2 2 2 2 1 1 1 2 2 2 2 1 2 2 3 3 2 3 3 1 3 6 8 9 10 11 13 15 16 17 17 17 16
2 3 3 3 3 3 3 3 2 2 2 2 2 2 2 2 2 3 3 2 2 1 2 3 2 2 2 2 1 1 4 5 7 8 9 10 11 12 15 17 18 18 18
2 3 3 4 3 3 3 2 2 2 2 2 2 2 2 2 2 2 3 3 3 2 3 3 1 2 1 2 0 3 5 6 7 8 9 10 11 11 12 14 16 17 18
2 3 3 3 3 3 4 3 2 2 3 3 3 3 2 2 2 2 3 3 3 3 2 1 1 0 1 2 1 4 5 4 6 8 9 10 11 12 12 13 14 14 15
2 3 3 2 2 2 2 3 3 3 3 2 2 3 3 2 2 2 3 3 3 4 4 2 2 2 3 4 2 5 5 3 8 9 9 10 11 12 12 13 13 13 14
3 2 2 3 2 2 2 1 3 2 3 2 2 3 3 3 3 2 3 3 3 4 5 5 3 3 4 5 3 4 4 5 5 8 9 10 10 11 12 13 13 14 14
3 2 2 3 2 2 2 3 3 3 3 3 3 3 3 2 3 3 3 3 3 4 5 6 5 4 5 5 4 5 4 4 5 5 8 10 11 11 12 12 13 14 14
3 3 3 3 2 2 2 3 3 3 3 3 3 3 3 2 3 2 3 3 3 3 4 5 5 4 4 4 4 5 6 5 6 5 7 10 11 11 12 12 13 13 14
4 4 3 3 3 3 3 3 3 3 3 2 2 3 3 3 3 3 3 3 4 4 4 5 5 4 4 4 4 4 4 4 5 5 5 6 8 11 13 13 13 13 14
5 4 4 4 3 3 3 4 4 4 4 3 3 2 2 3 5 5 4 4 4 4 4 4 4 4 4 3 3 4 5 5 5 5 5 5 5 6 8 11 14 14 14
5 5 5 5 4 3 0 4 7 5 4 4 3 3 2 3 2 3 4 5 6 6 5 5 5 5 5 4 4 4 5 5 4 3 5 6 5 6 6 7 7 10 13
6 6 6 6 6 4 3 6 7 7 6 5 5 4 2 2 3 3 3 5 5 5 6 7 7 6 6 5 5 6 5 6 6 5 5 7 6 7 6 6 7 9 11
6 6 6 6 6 5 5 7 7 9 6 6 5 5 4 4 2 5 5 5 4 4 4 6 6 6 6 6 6 7 7 7 7 6 5 6 6 6 6 6 7 10 11
6 7 6 7 7 6 7 7 8 7 6 6 5 4 4 4 1 3 6 5 5 4 3 6 6 7 8 8 7 6 6 6 6 5 4 5 6 6 6 6 6 9 11
6 6 6 7 7 7 5 7 9 6 6 5 4 4 3 4 2 4 6 5 5 5 5 4 6 8 7 6 6 7 6 6 5 4 3 4 5 5 5 5 4 5 7
Wind_Direction
313 310 292 287 279 288 267 250 246 226 225 229 231 235 231 227 233 245 191 161 220 248 232 217 206 200 198 198 194 191 189 185 182 177 174 173 166 161 157 154 152 149 147
324 315 302 298 294 290 292 274 255 238 230 227 231 232 232 230 234 234 240 184 190 223 234 221 211 198 197 198 198 195 189 188 186 180 179 173 165 161 159 159 159 156 154
332 327 323 320 314 295 281 275 268 254 233 226 227 229 225 231 236 236 231 237 195 191 207 212 208 198 198 202 201 197 192 188 184 180 178 170 167 167 166 166 166 164 163
343 336 332 335 327 303 292 271 266 256 237 231 230 225 220 221 233 242 236 225 223 200 185 189 199 199 198 204 203 199 193 189 185 182 175 170 170 172 172 173 171 171 169
347 346 343 339 341 327 314 294 291 278 264 247 237 222 220 222 226 234 238 230 214 217 201 167 187 197 197 201 204 202 196 192 187 187 180 175 176 177 179 180 179 177 176
351 349 340 346 350 345 342 326 321 289 289 286 262 234 225 230 235 232 247 242 229 214 213 192 186 188 196 202 204 205 201 196 193 193 188 184 184 184 187 186 185 185 184
353 355 343 357 351 351 346 337 327 297 281 293 266 233 211 220 236 234 234 239 225 221 214 212 211 197 186 197 203 206 204 203 200 200 196 191 190 191 191 192 193 193 192
359 351 355 352 1 349 349 351 338 314 314 311 283 261 220 193 196 216 223 228 229 210 215 210 211 213 223 193 182 194 205 209 208 205 203 200 195 195 197 200 200 199 197
6 1 1 357 357 350 2 354 347 336 326 346 348 302 276 237 154 174 204 210 218 221 219 225 222 213 221 224 188 187 198 208 213 212 210 207 201 201 203 205 206 205 202
7 2 359 358 358 0 1 357 12 339 326 327 355 316 326 345 277 191 175 179 191 215 227 223 225 224 221 228 222 182 187 205 216 219 217 214 210 208 209 209 209 209 207
5 4 354 354 356 358 3 360 360 349 338 333 327 322 332 297 277 270 228 207 207 207 226 238 227 228 226 230 233 197 178 203 216 224 225 222 218 215 214 213 213 214 213
357 13 345 342 347 356 359 352 347 349 337 333 317 312 307 300 311 294 274 260 258 243 247 232 231 215 224 243 241 85 198 216 221 225 229 229 225 221 218 217 218 219 220
341 5 342 338 347 353 348 339 330 331 329 325 310 311 308 301 310 293 279 277 271 263 253 232 217 210 221 236 225 191 225 228 232 231 231 232 231 228 224 222 222 223 223
339 344 337 339 344 337 330 337 313 327 328 320 324 320 299 304 308 296 289 285 273 249 230 223 205 207 237 251 28 246 240 216 233 239 237 234 233 231 228 226 226 226 226
321 323 329 320 338 332 333 329 325 335 325 318 317 303 290 299 287 285 283 278 281 276 257 226 233 236 280 281 255 260 262 212 231 241 242 238 235 232 231 229 227 227 226
312 306 302 313 327 320 322 325 321 341 311 330 306 298 299 286 292 276 269 266 265 278 282 279 269 288 309 280 236 268 270 252 241 240 242 241 237 234 233 231 228 227 226
271 282 301 309 322 328 331 339 320 326 313 311 290 295 293 298 283 275 269 261 254 257 268 279 279 280 276 279 275 273 268 263 248 223 236 243 242 239 236 234 231 228 226
282 284 292 294 311 319 330 327 319 316 318 315 309 298 291 288 288 283 275 263 257 256 265 278 281 282 277 283 283 282 277 269 270 230 230 242 244 241 237 236 234 232 229
259 255 251 274 294 303 304 296 298 304 309 308 311 311 307 296 287 280 268 267 265 260 258 268 280 286 278 279 285 278 272 274 272 254 233 236 238 240 239 236 234 233 232
246 257 259 265 278 287 288 290 299 296 296 295 290 294 301 302 301 296 278 271 267 265 262 265 271 272 275 282 280 280 280 272 271 270 260 252 239 235 236 235 234 233 232
240 242 254 259 266 276 298 311 302 294 295 291 276 276 304 336 338 315 307 299 280 269 267 268 269 269 269 273 275 281 281 287 279 267 270 261 249 246 237 231 230 230 230
240 238 246 255 262 261 298 286 289 285 287 285 285 281 252 226 245 264 289 304 304 290 284 270 267 267 273 272 271 271 278 279 275 266 277 274 264 258 252 250 233 224 227
234 237 242 247 253 247 218 247 258 280 283 292 294 290 285 285 270 280 247 235 246 249 267 282 282 282 285 287 282 277 273 274 273 283 281 273 266 262 260 253 230 232 233
230 235 240 245 250 243 216 240 247 254 264 269 270 277 275 269 286 310 297 289 287 271 264 261 277 286 293 297 290 284 283 278 274 263 256 266 269 270 270 262 226 225 231
236 235 234 240 247 240 204 225 244 253 252 257 257 261 273 272 80 294 282 287 290 282 227 234 270 283 294 288 282 274 265 262 270 268 255 259 275 283 278 268 246 220 228
240 246 241 243 247 253 198 213 241 253 253 253 248 240 219 270 312 275 276 286 290 301 301 266 244 241 255 251 240 259 269 270 274 275 259 262 275 287 281 267 265 255 241